Regional Weather Roundup
Issued by NWS Bismarck, ND

Home | Current Version | Previous Version | Text Only | Print | Product List | Glossary On
Versions: 1 2 3 4 5 6 7 8 9 10 11 12 13 14 15 16 17 18 19 20 21 22 23 24 25 26 27 28 29 30 31 32 33 34 35 36 37 38 39 40 41 42 43 44 45 46 47 48 49 50
695
ASUS43 KBIS 180002
RWRBIS

NWR BROADCAST TEXT
NATIONAL WEATHER SERVICE BISMARCK ND
700 PM CDT THU AUG 17 2017

NOTE: "FAIR" INDICATES FEW OR NO CLOUDS BELOW 12,000 FEET WITH NO
SIGNIFICANT WEATHER AND/OR OBSTRUCTIONS TO VISIBILITY.


CITY           SKY/WX    TMP DP  RH WIND       PRES   REMARKS
WILLISTON      MOSUNNY   80  51  36 NW14      29.85R
MINOT          SUNNY     81  52  36 E10       29.81R
MINOT AFB      CLOUDY    79  52  39 E9        29.80R
BISMARCK       MOSUNNY   77  61  57 S7        29.83F
DICKINSON        N/A     77  47  34 W15       29.87R
GARRISON         N/A     76  63  64 SE8       29.80S
HETTINGER ARPT CLOUDY    82  49  31 SW5       29.90S
JAMESTOWN      SUNNY     76  61  59 SE3       29.86S
CARRINGTON     FAIR      77  57  50 SE7       29.88S
HAZEN          FAIR      84  52  32 W9        29.81S
LINTON           N/A     75  57  53 SE6       29.87F
MANDAN         FAIR      75  63  64 SE8       29.84F
RUGBY          FAIR      77  55  47 E7        29.84F
STANLEY        FAIR      81  55  41 SW7       29.85S
TIOGA          FAIR      82  50  32 NW14      29.86R
WATFORD CITY   FAIR      82  52  34 NW9G16    29.84R
$$

CITY           SKY/WX    TMP DP  RH WIND       PRES   REMARKS
GRAND FORKS    MOSUNNY   80  61  52 NE5       29.82S
GRAND FORKS AF NOT AVBL
DEVILS LAKE    MOSUNNY   77  54  44 CALM      29.87S
FARGO          SUNNY     77  60  55 N8        29.84S
CANDO          FAIR      77  57  50 S6        29.88S
CAVALIER       FAIR      77  55  47 N5        29.82S
GRAFTON        FAIR      77  61  57 NW3       29.84S
GWINNER        CLEAR     75  64  69 CALM      29.86S
LANGDON        FAIR      75  57  53 CALM      29.86F
ROLLA          FAIR      77  57  50 N5        29.88S
WALHALLA       FAIR      79  79 100 N9        29.82F
$$

CITY           SKY/WX    TMP DP  RH WIND       PRES   REMARKS
ABERDEEN       SUNNY     77  60  55 E7        29.87S
BUFFALO          N/A     81  41  24 W16       29.87S
RAPID CITY     CLOUDY    76  46  34 NW17      30.00R
GLASGOW        SUNNY     84  37  18 NW14      29.89F
SIDNEY         CLOUDY    82  50  32 N22G28    29.86R
WOLF POINT     SUNNY     84  43  23 NE8       29.89R
GLENDIVE       CLOUDY    85  40  20 N15       29.88S
MILES CITY     SUNNY     89  30  12 N10       29.88S
BAKER          MOSUNNY   85  34  16 NW6       29.91F
$$

CITY           SKY/WX    TMP DP  RH WIND       PRES   REMARKS
BILLINGS       MOSUNNY   86  29  12 N18G32    29.97S
GREAT FALLS    MOSUNNY   82  35  18 CALM      30.01F
$$





USA.gov is the U.S. government's official web portal to all federal, state and local government web resources and services.